Regional Weather Roundup
Issued by NWS Upton, NY

Current Version | Previous Version | Graphics & Text | Print | Product List | Glossary Off
Versions: 1 2 3 4 5 6 7 8 9 10 11 12 13 14 15 16 17 18 19 20 21 22 23 24 25 26 27 28 29 30 31 32 33 34 35 36 37 38 39 40 41 42 43 44 45 46 47 48 49 50

000
ASUS41 KOKX 281905
RWROKX

REGIONAL WEATHER ROUNDUP
NATIONAL WEATHER SERVICE NEW YORK NY
200 PM EST SUN DEC 28 2014

NOTE: "FAIR" INDICATES FEW OR NO CLOUDS BELOW 12,000 FEET WITH NO
SIGNIFICANT WEATHER AND/OR OBSTRUCTIONS TO VISIBILITY.

NYZ071-072-176-178-NJZ106-104-282000-
NEW YORK CITY METRO AREA


CITY           SKY/WX    TMP DP  RH WIND       PRES   REMARKS
CENTRAL PARK   CLOUDY    52  41  66 VRB3      29.91S
LAGUARDIA APRT CLOUDY    51  43  74 CALM      29.88F
KENNEDY INTL   CLOUDY    54  42  64 W10       29.90S
NEWARK/LIBERTY CLOUDY    54  44  69 W6        29.89F
BRNX BOT. GARD   N/A     52  41  66 W7        29.91R
TETERBORO      CLOUDY    54  44  69 NW3       29.87F
$$

NYZ177-179-078>081-282000-
LONG ISLAND NEW YORK

CITY           SKY/WX    TMP DP  RH WIND       PRES   REMARKS
FARMINGDALE    CLOUDY    53  42  66 NW7       29.89R
ISLIP          DRIZZLE   52  42  69 W10       29.86S
SHIRLEY        CLOUDY    52  43  71 W8        29.88S
WESTHAMPTON    CLOUDY    52  42  69 W14       29.87S
MONTAUK POINT    N/A     49  43  80 W9        29.86R
$$

NYZ052-065-067-282000-
HUDSON VALLEY

CITY           SKY/WX    TMP DP  RH WIND       PRES   REMARKS
WHITE PLAINS   CLOUDY    50  43  77 NW8       29.86F
NEWBURGH       PTSUNNY   48  43  81 NW9       29.88S
MONTGOMERY     CLOUDY    49  39  68 W9        29.87S
POUGHKEEPSIE   CLOUDY    52  39  61 W9        29.87R
ALBANY         CLOUDY    42  31  64 NW16G23   29.92R
$$

NJZ001-105-106-008-010-013-015-019>022-104-282000-
NEW JERSEY

CITY           SKY/WX    TMP DP  RH WIND       PRES   REMARKS
NEWARK/LIBERTY CLOUDY    54  44  69 W6        29.89F
TETERBORO      CLOUDY    54  44  69 NW3       29.87F
CALDWELL       CLOUDY    53  41  63 NW12      29.88F
MORRISTOWN     PTSUNNY   57  45  62 NW8G18    29.89F
SOMERVILLE     CLOUDY    53  42  66 W5        29.87F
SUSSEX         CLOUDY    49  39  68 W7        29.88F
ANDOVER        NOT AVBL
TRENTON        CLOUDY    53  41  63 W8        29.90S
MILLVILLE      CLOUDY    54  42  64 W6        29.93S
ATLANTIC CITY  CLOUDY    54  41  61 W3        29.92F
WRIGHTSTOWN    CLOUDY    54  43  66 W5        29.89S
TOMS RIVER     CLOUDY    52  45  76 W8        29.92R
BELMAR         CLOUDY    54  39  58 NW9       29.90S
$$

PAZ047>061-062-071-282000-
EASTERN PENNSYLVANIA

CITY           SKY/WX    TMP DP  RH WIND       PRES   REMARKS
PHILADELPHIA   CLOUDY    55  41  59 SW8       29.93S
ALLENTOWN      CLOUDY    52  42  69 W7        29.90S
SCRANTON       CLOUDY    44  34  67 NW15G25   29.90S
$$

CTZ002-004>006-009-010-012-RIZ004-006-007-MAZ004-011-015-282000-
SOUTHERN NEW ENGLAND
 IN CT

CITY           SKY/WX    TMP DP  RH WIND       PRES   REMARKS
BRADLEY INTL   CLOUDY    50  40  68 W7        29.85R
HARTFORD       CLOUDY    50  42  74 W6        29.87R
DANBURY        CLOUDY    50  40  68 W8        29.87R
WTRBRY/OXFORD  CLOUDY    48  39  71 NW8       29.86S
BRIDGEPORT     CLOUDY    48  44  86 SW8       29.87R
MERIDEN        CLOUDY    50  42  74 NW5       29.86R
NEW HAVEN      CLOUDY    50  45  83 W3        29.86R
CHESTER        NOT AVBL
GROTON         CLOUDY    47  44  90 SW5       29.83F
WILLIMANTIC    CLOUDY    50  42  74 W7        29.85R

 IN RI

CITY           SKY/WX    TMP DP  RH WIND       PRES   REMARKS
PROVIDENCE     CLOUDY    50  42  74 W8        29.83R
BLOCK ISLAND   CLOUDY    48  41  76 W15       29.85R
WESTERLY       CLOUDY    49  43  80 VRB6      29.85R

 IN MA

CITY           SKY/WX    TMP DP  RH WIND       PRES   REMARKS
BOSTON         CLOUDY    51  40  65 W20G25    29.79R
WORCESTER      CLOUDY    44  37  76 W18G31    29.79R
WESTFIELD      CLOUDY    47  36  65 NW12      29.87R
PROVINCETOWN   CLOUDY    46  45  93 SW9       29.79R
NANTUCKET      CLOUDY    50  45  83 W16G24    29.82R
$$

ANZ330-335-338-340-345-350-353-355-282000-
COASTAL MARINE OBSERVATIONS


STATION/POSITION TIME  SKY/WX   TEMP    WIND        PRES    VSBY  WAVE
                                AIR SEA DIR/SP/G                  HT/PER
                 (UTC)          (F)     (DEG/KT/KT) (MB)    (MI)  (FT/S)
NY HARB ENTRANCE 1900            47 45  250/  6/  8 1012.8          3/ 6
4S FIRE IS       1900               47                N/A           4/ 6
20S FIRE ISLAND  1800            49 49              1012.7          4/ 6
23SW MTP         1900                                 N/A           5/ 6
HUDSON CANYON    1900            52 55  280/ 17/ 21 1012.3
EXECUTION ROCKS  1900            47 42  230/  4/  6   N/A
WESTERN LI SOUND 1900            45     240/  6/  8   N/A           1
CENTRAL LI SOUND 1800            45 44  270/ 14/ 17   N/A           1/ 3
EASTERN LI SOUND NOT AVBL
ROBBINS REEF     1900            50                 1011.1
$$


>>>>>>>>>>>>>>>>>>>>>>>>>>>> KEY <<<<<<<<<<<<<<<<<<<<<<<<<<<
>                                                          <
>     SKY/WX - SKY CONDITION/PRESENT WEATHER               <
>     TMP    - TEMPERATURE IN FAHRENHEIT                   <
>     DP     - DEWPOINT IN FAHRENHEIT                      <
>     RH     - RELATIVE HUMIDITY IN PERCENT                <
>     WIND   - DIRECTION AND SPEED IN MPH                  <
>     PRES   - MEAN SEA LEVEL PRESSURE IN INCHES OF HG     <
>     WCI    - WIND CHILL INDEX                            <
>     VSB    - VISIBILITY IN MILES                         <
>     HX     - HEAT INDEX                                  <
>     TC     - TEMPERATURE IN CELSIUS                      <
>     VRB    - VARIABLE WIND DIRECTION                     <
>                                                          <
>>>>>>>>>>>>>>>>>>>>>>>>>>>> KEY <<<<<<<<<<<<<<<<<<<<<<<<<<<




USA.gov is the U.S. government's official web portal to all federal, state and local government web resources and services.